sat.trackr.live / text

‹ back to catalog

UNKNOWN

NORAD 82205

UNKNOWN UNKNOWN UNKNOWN

§ Identity

Operator
Country
Launch date
Launch site
Launch vehicle
Mass (kg)
RCS (m²)

External: N2YO · Heavens-Above

§ Orbital elements

Epoch: 2026-05-20T10:28:13.566432Z

Period
103.28 min
Inclination
63.0056°
Eccentricity
0.0500036
Mean motion
13.94237718 rev/d
Perigee alt
549.2 km
Apogee alt
1,278.4 km
Semi-major
7,292.0 km
B*
3.9973e-4
RAAN
154.4127°
Arg perigee
309.2671°
Mean anomaly
46.5004°
Rev number
63,012

§ Raw data

UNKNOWN1 82205U          26140.43626813  .00001389  00000+0  39973-3 0  99972 82205  63.0056 154.4127 0500036 309.2671  46.5004 13.94237718630121

JSON: /api/v1/satellites/82205 · /tle

For live sub-satellite position, see the globe view (requires WebGL).

§ Visibility from observer

Set your observer location to see the next 7 days of passes ≥ 10°. The values pass through the URL so the page stays shareable.

No JS? Fill the form by hand. The geolocation button needs JavaScript.